Satellite: FO-70
Catalog number: 37380
Epoch time:      12137.27567472
Element set:    0185
Inclination:      071.9741 deg
RA of node:       022.8962 deg
Eccentricity:    0.0018036
Arg of perigee:   010.0794 deg
Mean anomaly:     350.0707 deg
Mean motion:   14.76807976 rev/day
Decay rate:      1.384e-05 rev/day^2
Epoch rev:           03127
Checksum:              308

Satellite: ALMASAT-1
Catalog number: 38078
Epoch time:      12138.87108008
Element set:     217
Inclination:      069.4994 deg
RA of node:       025.8912 deg
Eccentricity:    0.0763296
Arg of perigee:   286.5758 deg
Mean anomaly:     065.2891 deg
Mean motion:   14.08465418 rev/day
Decay rate:     1.2555e-04 rev/day^2
Epoch rev:            1328
Checksum:              338

Satellite: XATCOBEO
Catalog number: 38082
Epoch time:      12138.72689990
Element set:     247
Inclination:      069.4967 deg
RA of node:       025.0805 deg
Eccentricity:    0.0745305
Arg of perigee:   286.1038 deg
Mean anomaly:     065.9384 deg
Mean motion:   14.14384961 rev/day
Decay rate:     2.8782e-04 rev/day^2
Epoch rev:            1328
Checksum:              336

/EX
SB KEPS @ AMSAT  $ORB12138.W
Orbital Elements  12138.WEATHER

HR AMSAT ORBITAL ELEMENTS FOR WEATHER SATELLITES
FROM WA5QGD FORT WORTH,TX May 17, 2012
Send SUBSCRIBE KEPS/UNSUBSCRIBE KEPS to majordomo at amsat.org only
BID: ORB12138.W
TO ALL RADIO AMATEURS BT

Satellite: NOAA-10
Catalog number: 16969
Epoch time:      12137.61984439
Element set:    0924
Inclination:      098.5852 deg
RA of node:       167.2310 deg
Eccentricity:    0.0012210
Arg of perigee:   331.9956 deg
Mean anomaly:     028.0555 deg
Mean motion:   14.27549713 rev/day
Decay rate:       1.20e-06 rev/day^2
Epoch rev:           33536
Checksum:              305

Satellite: NOAA-11
Catalog number: 19531
Epoch time:      12137.74835881
Element set:    0923
Inclination:      098.7310 deg
RA of node:       223.5666 deg
Eccentricity:    0.0010835
Arg of perigee:   317.9610 deg
Mean anomaly:     042.0734 deg
Mean motion:   14.14965416 rev/day
Decay rate:      -2.28e-06 rev/day^2
Epoch rev:           22006
Checksum:              289

Satellite: NOAA-12
Catalog number: 21263
Epoch time:      12137.88271352
Element set:    0422
Inclination:      098.7310 deg
RA of node:       159.6932 deg
Eccentricity:    0.0013058
Arg of perigee:   294.8609 deg
Mean anomaly:     065.1212 deg
Mean motion:   14.25493894 rev/day
Decay rate:        5.2e-07 rev/day^2
Epoch rev:           09209
Checksum:              297

Satellite: MET-3/5
Catalog number: 21655
Epoch time:      12138.45793701
Element set:     411
Inclination:      082.5551 deg
RA of node:       173.8964 deg
Eccentricity:    0.0014054
Arg of perigee:   044.5554 deg
Mean anomaly:     315.6695 deg
Mean motion:   13.17037961 rev/day
Decay rate:       -7.2e-07 rev/day^2
Epoch rev:           99785
Checksum:              321

Satellite: MET-2/21
Catalog number: 22782
Epoch time:      12138.78542451
Element set:     419
Inclination:      082.5486 deg
RA of node:       056.6337 deg
Eccentricity:    0.0021036
Arg of perigee:   236.2762 deg
Mean anomaly:     123.6390 deg
Mean motion:   13.83684036 rev/day
Decay rate:        4.7e-07 rev/day^2
Epoch rev:           94496
Checksum:              314

Satellite: OKEAN-4
Catalog number: 23317
Epoch time:      12138.88738489
Element set:     888
Inclination:      082.5406 deg
RA of node:       059.5295 deg
Eccentricity:    0.0023431
Arg of perigee:   090.8442 deg
Mean anomaly:     269.5456 deg
Mean motion:   14.83753339 rev/day
Decay rate:      1.103e-05 rev/day^2
Epoch rev:           95031
Checksum:              329

Satellite: NOAA-14
Catalog number: 23455
Epoch time:      12137.91005176
Element set:    0906
Inclination:      098.8275 deg
RA of node:       221.8009 deg
Eccentricity:    0.0010264
Arg of perigee:   051.5528 deg
Mean anomaly:     308.6560 deg
Mean motion:   14.13897456 rev/day
Decay rate:       1.17e-06 rev/day^2
Epoch rev:           89637
Checksum:              310

Satellite: NOAA-15
Catalog number: 25338
Epoch time:      12137.74242583
Element set:    0263
Inclination:      098.6878 deg
RA of node:       124.9499 deg
Eccentricity:    0.0010132
Arg of perigee:   195.2605 deg
Mean anomaly:     164.8255 deg
Mean motion:   14.25066914 rev/day
Decay rate:        6.0e-07 rev/day^2
Epoch rev:           72837
Checksum:              319

Satellite: RESURS
Catalog number: 25394
Epoch time:      12138.56160933
Element set:      88
Inclination:      098.3201 deg
RA of node:       128.4150 deg
Eccentricity:    0.0001680
Arg of perigee:   009.1631 deg
Mean anomaly:     350.9580 deg
Mean motion:   14.24286720 rev/day
Decay rate:        1.8e-07 rev/day^2
Epoch rev:           72004
Checksum:              264

Satellite: FENGYUN1
Catalog number: 25730
Epoch time:      12138.90455549
Element set:     606
Inclination:      098.8440 deg
RA of node:       098.4156 deg
Eccentricity:    0.0020366
Arg of perigee:   088.5205 deg
Mean anomaly:     271.8299 deg
Mean motion:   14.09506379 rev/day
Decay rate:      1.759e-05 rev/day^2
Epoch rev:           67034
Checksum:              329

Satellite: OKEAN-0
Catalog number: 25860
Epoch time:      12137.97055059
Element set:    0629
Inclination:      097.9329 deg
RA of node:       101.2586 deg
Eccentricity:    0.0001377
Arg of perigee:   047.2016 deg
Mean anomaly:     312.9307 deg
Mean motion:   14.74186345 rev/day
Decay rate:       5.02e-06 rev/day^2
Epoch rev:           68997
Checksum:              316

Satellite: NOAA-16
Catalog number: 26536
Epoch time:      12137.73334931
Element set:    0748
Inclination:      099.0972 deg
RA of node:       179.3662 deg
Eccentricity:    0.0010818
Arg of perigee:   167.9506 deg
Mean anomaly:     192.1918 deg
Mean motion:   14.12738078 rev/day
Decay rate:       3.94e-06 rev/day^2
Epoch rev:           60059
Checksum:              335

Satellite: NOAA-17
Catalog number: 27453
Epoch time:      12137.76437232
Element set:    0706
Inclination:      098.3387 deg
RA of node:       166.3861 deg
Eccentricity:    0.0010684
Arg of perigee:   247.1849 deg
Mean anomaly:     112.8196 deg
Mean motion:   14.24430773 rev/day
Decay rate:       1.91e-06 rev/day^2
Epoch rev:           51428
Checksum:              317

Satellite: NOAA-18
Catalog number: 28654
Epoch time:      12137.80845704
Element set:    0181
Inclination:      099.0429 deg
RA of node:       095.6389 deg
Eccentricity:    0.0013395
Arg of perigee:   242.0741 deg
Mean anomaly:     117.9082 deg
Mean motion:   14.11647799 rev/day
Decay rate:       1.74e-06 rev/day^2
Epoch rev:           36013
Checksum:              320

Satellite: NOAA-19
Catalog number: 33591
Epoch time:      12137.80934715
Element set:    0373
Inclination:      098.8624 deg
RA of node:       077.9894 deg
Eccentricity:    0.0014992
Arg of perigee:   108.5347 deg
Mean anomaly:     251.7442 deg
Mean motion:   14.11337245 rev/day
Decay rate:       4.15e-06 rev/day^2
Epoch rev:           16858
Checksum:              333

/EX
SB KEPS @ AMSAT  $ORB12138.M
Orbital Elements  12138.MISC

HR AMSAT ORBITAL ELEMENTS FOR MANNED AND MISCELLANEOUS SATELLITES
FROM WA5QGD FORT WORTH,TX May 17, 2012
Send SUBSCRIBE KEPS/UNSUBSCRIBE KEPS to majordomo at amsat.org only
BID: ORB12138.M
TO ALL RADIO AMATEURS BT

Satellite: HUBBLE
Catalog number: 20580
Epoch time:      12138.17053356
Element set:       2
Inclination:      028.4715 deg
RA of node:       346.5126 deg
Eccentricity:    0.0003476
Arg of perigee:   087.8872 deg
Mean anomaly:     272.2114 deg
Mean motion:   15.02470528 rev/day
Decay rate:      1.743e-05 rev/day^2
Epoch rev:            1006
Checksum:              259

Satellite: ISS
Catalog number: 25544
Epoch time:      12139.07006944
Element set:     573
Inclination:      051.6405 deg
RA of node:       273.0039 deg
Eccentricity:    0.0010581
Arg of perigee:   331.2861 deg
Mean anomaly:     014.4487 deg
Mean motion:   15.56174428 rev/day
Decay rate:     1.1767e-04 rev/day^2
Epoch rev:           77331
Checksum:              286

Satellite: CO-58
Catalog number: 28895
Epoch time:      12137.63930815
Element set:    0177
Inclination:      097.9197 deg
RA of node:       005.2925 deg
Eccentricity:    0.0016688
Arg of perigee:   249.0655 deg
Mean anomaly:     110.8793 deg
Mean motion:   14.60604594 rev/day
Decay rate:       6.87e-06 rev/day^2
Epoch rev:           34905
Checksum:              354

Satellite: FALCON
Catalog number: 30776
Epoch time:      12138.92213943
Element set:     348
Inclination:      035.4311 deg
RA of node:       101.6739 deg
Eccentricity:    0.0001067
Arg of perigee:   108.7216 deg
Mean anomaly:     251.3626 deg
Mean motion:   15.07341586 rev/day
Decay rate:      3.994e-05 rev/day^2
Epoch rev:           28568
Checksum:              296

Satellite: MAST
Catalog number: 31126
Epoch time:      12137.98310156
Element set:    0469
Inclination:      097.8723 deg
RA of node:       150.9085 deg
Eccentricity:    0.0092841
Arg of perigee:   207.4965 deg
Mean anomaly:     152.1314 deg
Mean motion:   14.54135592 rev/day
Decay rate:       4.85e-06 rev/day^2
Epoch rev:           26973
Checksum:              309

Satellite: CAPE1
Catalog number: 31130
Epoch time:      12138.47483255
Element set:     470
Inclination:      097.8821 deg
RA of node:       147.7733 deg
Eccentricity:    0.0100608
Arg of perigee:   218.9045 deg
Mean anomaly:     140.4933 deg
Mean motion:   14.52908422 rev/day
Decay rate:       4.55e-06 rev/day^2
Epoch rev:           26931
Checksum:              289

